When you browse on this site, cookies collect data to enhance your experience and personalize the content and advertising you see.
Visit our Privacy Policy to learn more. By continuing to use the site, you agree to this use of cookies and data.
  • In Spain
  • List of Countries
  • For 7 days
  • Water Temperature
  • Weather Map
  • Weather Widgets
  • user-avatar
    Login

    Hourly Weather Orsha

    Today, 7 April, Tuesday

    Time Temperature Precipitation Wind Pressure Humidity
    00:00 +6°C° 0 mm 1 mps 759 mmHg 72%
    01:00 +5°C° 0 mm 1 mps 759 mmHg 73%
    02:00 +4°C° 0 mm 2 mps 759 mmHg 70%
    03:00 +5°C° 0 mm 1 mps 759 mmHg 71%
    04:00 +5°C° 0 mm 1 mps 759 mmHg 72%
    05:00 +4°C° 0 mm 1 mps 759 mmHg 73%
    06:00 +5°C° 0 mm 2 mps 759 mmHg 71%
    07:00 +6°C° 0 mm 2 mps 759 mmHg 68%
    08:00 +7°C° 0 mm 3 mps 759 mmHg 64%
    09:00 +8°C° 0 mm 4 mps 759 mmHg 58%
    10:00 +11°C° 0 mm 4 mps 759 mmHg 52%
    11:00 +12°C° 0 mm 5 mps 758 mmHg 45%
    12:00 +13°C° 0 mm 5 mps 758 mmHg 44%
    13:00 +14°C° 0 mm 5 mps 758 mmHg 42%
    14:00 +14°C° 0 mm 6 mps 757 mmHg 41%
    15:00 +14°C° 0 mm 5 mps 757 mmHg 43%
    16:00 +14°C° 0 mm 5 mps 756 mmHg 44%
    17:00 +13°C° 0 mm 4 mps 755 mmHg 46%
    18:00 +12°C° 0 mm 4 mps 755 mmHg 49%
    19:00 +10°C° 0 mm 4 mps 754 mmHg 52%
    20:00 +8°C° 0 mm 5 mps 754 mmHg 56%
    21:00 +8°C° 0 mm 5 mps 753 mmHg 56%
    22:00 +7°C° 0 mm 5 mps 753 mmHg 57%
    23:00 +7°C° 0 mm 6 mps 752 mmHg 58%

    Tomorrow, 8 April, Wednesday

    Time Temperature Precipitation Wind Pressure Humidity
    00:00 +7°C° 0 mm 6 mps 752 mmHg 61%
    01:00 +7°C° 0 mm 6 mps 752 mmHg 65%
    02:00 +7°C° 0 mm 6 mps 751 mmHg 68%
    03:00 +5°C° 0 mm 6 mps 751 mmHg 74%
    04:00 +5°C° 0 mm 6 mps 751 mmHg 80%
    05:00 +5°C° 0 mm 5 mps 751 mmHg 86%
    06:00 +4°C° 0 mm 6 mps 751 mmHg 83%
    07:00 +5°C° 0 mm 6 mps 751 mmHg 79%
    08:00 +5°C° 0 mm 6 mps 751 mmHg 75%
    09:00 +7°C° 0 mm 6 mps 752 mmHg 72%
    10:00 +8°C° 0 mm 7 mps 752 mmHg 69%
    11:00 +9°C° 0 mm 7 mps 752 mmHg 65%
    12:00 +10°C° 0 mm 6 mps 752 mmHg 63%
    13:00 +10°C° 0 mm 6 mps 752 mmHg 61%
    14:00 +12°C° 0 mm 5 mps 752 mmHg 58%
    15:00 +12°C° 0 mm 5 mps 752 mmHg 57%
    16:00 +12°C° 0 mm 4 mps 752 mmHg 55%
    17:00 +12°C° 0 mm 4 mps 752 mmHg 53%
    18:00 +10°C° 0 mm 3 mps 752 mmHg 58%
    19:00 +9°C° 0 mm 3 mps 751 mmHg 62%
    20:00 +7°C° 0 mm 2 mps 751 mmHg 66%
    21:00 +7°C° 0 mm 2 mps 751 mmHg 67%
    22:00 +6°C° 0 mm 2 mps 751 mmHg 69%
    23:00 +6°C° 0 mm 2 mps 751 mmHg 70%

    Day after tomorrow, 9 April, Thursday

    Time Temperature Precipitation Wind Pressure Humidity
    00:00 +5°C° 0 mm 2 mps 751 mmHg 70%
    01:00 +6°C° 0 mm 1 mps 750 mmHg 71%
    02:00 +5°C° 0 mm 1 mps 750 mmHg 72%
    03:00 +4°C° 0 mm 2 mps 749 mmHg 73%
    04:00 +4°C° 0 mm 2 mps 749 mmHg 74%
    05:00 +3°C° 0 mm 3 mps 749 mmHg 75%
    06:00 +4°C° 0 mm 3 mps 748 mmHg 72%
    07:00 +5°C° 0 mm 4 mps 748 mmHg 68%
    08:00 +6°C° 0 mm 4 mps 747 mmHg 65%
    09:00 +8°C° 0 mm 5 mps 747 mmHg 61%
    10:00 +9°C° 0 mm 5 mps 746 mmHg 57%
    11:00 +11°C° 0 mm 6 mps 746 mmHg 54%
    12:00 +13°C° 0 mm 6 mps 745 mmHg 51%
    13:00 +14°C° 0 mm 6 mps 745 mmHg 49%
    14:00 +15°C° 0 mm 6 mps 744 mmHg 46%
    15:00 +13°C° 0.2 mm 6 mps 744 mmHg 56%
    16:00 +12°C° 0.2 mm 5 mps 744 mmHg 66%
    17:00 +10°C° 0.2 mm 4 mps 743 mmHg 76%
    18:00 +10°C° 0.8 mm 4 mps 743 mmHg 81%
    19:00 +9°C° 0.8 mm 3 mps 743 mmHg 86%
    20:00 +8°C° 0.8 mm 3 mps 742 mmHg 91%
    21:00 +8°C° 0.1 mm 3 mps 742 mmHg 93%
    22:00 +7°C° 0.1 mm 3 mps 742 mmHg 94%
    23:00 +7°C° 0.1 mm 3 mps 742 mmHg 95%

    10 April, Friday

    Time Temperature Precipitation Wind Pressure Humidity
    00:00 +6°C° 0.3 mm 4 mps 742 mmHg 92%
    01:00 +6°C° 0.3 mm 4 mps 742 mmHg 90%
    02:00 +6°C° 0.3 mm 5 mps 742 mmHg 87%
    03:00 +3°C° 0.1 mm 5 mps 742 mmHg 84%
    04:00 +2°C° 0.1 mm 6 mps 743 mmHg 82%
    05:00 +1°C° 0.1 mm 6 mps 743 mmHg 79%
    06:00 +1°C° 0 mm 6 mps 743 mmHg 76%
    07:00 +1°C° 0 mm 6 mps 744 mmHg 73%
    08:00 0°C° 0 mm 7 mps 744 mmHg 70%
    09:00 +2°C° 0 mm 7 mps 745 mmHg 67%
    10:00 +3°C° 0 mm 7 mps 745 mmHg 63%
    11:00 +4°C° 0 mm 7 mps 745 mmHg 59%
    12:00 +4°C° 0 mm 7 mps 746 mmHg 57%
    13:00 +5°C° 0 mm 7 mps 746 mmHg 54%
    14:00 +5°C° 0 mm 7 mps 746 mmHg 51%
    15:00 +5°C° 0 mm 7 mps 746 mmHg 51%
    16:00 +5°C° 0 mm 7 mps 746 mmHg 51%
    17:00 +5°C° 0 mm 6 mps 746 mmHg 51%
    18:00 +5°C° 0 mm 5 mps 746 mmHg 56%
    19:00 +4°C° 0 mm 4 mps 746 mmHg 62%
    20:00 +2°C° 0 mm 3 mps 747 mmHg 67%
    21:00 +1°C° 0 mm 4 mps 747 mmHg 70%
    22:00 +1°C° 0 mm 4 mps 747 mmHg 73%
    23:00 0°C° 0 mm 4 mps 747 mmHg 76%

    11 April, Saturday

    Time Temperature Precipitation Wind Pressure Humidity
    00:00 0°C° 0 mm 4 mps 747 mmHg 79%
    01:00 -1°C° 0 mm 4 mps 747 mmHg 82%
    02:00 -1°C° 0 mm 4 mps 748 mmHg 85%
    03:00 -1°C° 0 mm 4 mps 748 mmHg 84%
    04:00 -2°C° 0 mm 4 mps 748 mmHg 84%
    05:00 -2°C° 0 mm 4 mps 748 mmHg 83%
    06:00 -2°C° 0 mm 5 mps 749 mmHg 78%
    07:00 -1°C° 0 mm 5 mps 749 mmHg 73%
    08:00 0°C° 0 mm 5 mps 749 mmHg 68%
    09:00 +1°C° 0 mm 5 mps 749 mmHg 63%
    10:00 +2°C° 0 mm 5 mps 750 mmHg 58%
    11:00 +3°C° 0 mm 5 mps 750 mmHg 52%
    12:00 +3°C° 0 mm 5 mps 750 mmHg 51%
    13:00 +5°C° 0 mm 5 mps 750 mmHg 49%
    14:00 +5°C° 0 mm 5 mps 750 mmHg 47%
    15:00 +5°C° 0 mm 4 mps 750 mmHg 47%
    16:00 +5°C° 0 mm 4 mps 750 mmHg 47%
    17:00 +5°C° 0 mm 4 mps 750 mmHg 47%
    18:00 +4°C° 0 mm 3 mps 750 mmHg 51%
    19:00 +2°C° 0 mm 3 mps 751 mmHg 54%
    20:00 +2°C° 0 mm 2 mps 751 mmHg 58%
    21:00 +2°C° 0 mm 2 mps 751 mmHg 60%
    22:00 +2°C° 0 mm 1 mps 751 mmHg 61%
    23:00 +2°C° 0 mm 1 mps 751 mmHg 63%

    12 April, Sunday

    Time Temperature Precipitation Wind Pressure Humidity
    00:00 +1°C° 0 mm 1 mps 751 mmHg 64%
    01:00 +1°C° 0 mm 1 mps 751 mmHg 65%
    02:00 +1°C° 0 mm 1 mps 751 mmHg 65%
    03:00 +1°C° 0 mm 1 mps 751 mmHg 66%
    04:00 -1°C° 0 mm 2 mps 751 mmHg 67%
    05:00 -1°C° 0 mm 2 mps 751 mmHg 68%
    06:00 0°C° 0 mm 3 mps 751 mmHg 63%
    07:00 +1°C° 0 mm 3 mps 751 mmHg 59%
    08:00 +3°C° 0 mm 4 mps 750 mmHg 54%
    09:00 +4°C° 0 mm 4 mps 750 mmHg 52%
    10:00 +5°C° 0 mm 5 mps 750 mmHg 49%
    11:00 +6°C° 0 mm 5 mps 749 mmHg 47%
    12:00 +7°C° 0 mm 5 mps 748 mmHg 46%
    13:00 +7°C° 0 mm 5 mps 748 mmHg 46%
    14:00 +8°C° 0 mm 6 mps 747 mmHg 46%
    15:00 +8°C° 0 mm 6 mps 747 mmHg 47%
    16:00 +8°C° 0 mm 5 mps 746 mmHg 48%
    17:00 +8°C° 0 mm 5 mps 745 mmHg 49%
    18:00 +7°C° 0 mm 5 mps 745 mmHg 54%
    19:00 +6°C° 0 mm 5 mps 744 mmHg 58%
    20:00 +4°C° 0 mm 4 mps 744 mmHg 62%
    21:00 +3°C° 0 mm 5 mps 743 mmHg 62%
    22:00 +3°C° 0 mm 5 mps 742 mmHg 62%
    23:00 +3°C° 0 mm 5 mps 742 mmHg 62%
    Show more